Location: Observatoire
(46.1952°N, 5.3391°E)
Time: 02:43:51
(UTC+01:00)

Altair - Pass Details

Date: 22 February 2026
Orbit: 1502 x 1682 km, 47.2° (Epoch: 10 March)

Event Time Altitude Azimuth Distance (km) Brightness Sun altitude
Rises 08:28:25 0° 284° (WNW) 4,665 9.4 8.7°
Reaches altitude 10° 08:31:25 10° 284° (WNW) 3,698 8.9 9.1°
Maximum altitude 08:40:47 83° 199° (SSW) 1,580 7.8 10.6°
Drops below altitude 10° 08:50:31 10° 113° (ESE) 3,828 12.6 12.1°
Sets 08:53:40 0° 113° (ESE) 4,837 12.1 12.6°
